Wind_Speed
11 10 7 5 4 4 4 4 3 2 1 1 4 5 7 9 9 9 9 9 8 7 6 5 4 3 3 2 3 4 5 6 6 7 8 9 10 11 12 12 12 12
13 12 10 8 6 6 6 6 5 4 3 2 1 3 5 6 7 8 9 9 9 9 8 7 6 5 4 4 3 3 3 3 4 5 6 6 8 9 11 12 13 14
16 14 13 12 10 9 8 8 8 7 6 5 4 2 1 2 4 5 6 7 7 8 9 9 8 8 7 6 6 5 5 5 5 4 5 5 5 6 7 9 11 12
18 17 15 15 14 13 12 12 11 10 9 8 7 6 4 2 1 1 2 3 4 5 6 6 7 7 8 8 8 8 8 8 7 7 7 7 6 6 6 6 7 8
20 19 18 18 18 17 17 16 14 13 12 12 11 9 8 6 5 4 3 2 2 3 3 4 4 5 6 7 8 9 10 10 10 10 10 10 10 9 9 8 7 7
23 22 21 20 21 21 20 19 18 16 15 15 15 13 12 10 9 8 7 6 6 5 5 5 5 5 6 6 7 7 9 10 11 11 11 12 13 13 13 12 11 11
27 26 24 23 23 23 22 21 20 19 18 18 18 17 16 14 13 12 11 10 10 9 9 9 8 9 9 9 9 8 9 10 11 12 12 12 13 13 14 15 15 14
31 30 27 27 27 26 25 24 23 22 20 19 21 21 20 18 17 16 15 14 14 14 13 12 12 12 12 12 12 12 11 12 13 13 13 13 14 14 14 14 15 15
34 33 30 30 29 28 28 28 27 26 23 21 22 22 23 23 21 19 18 18 18 18 17 16 15 15 15 16 16 16 15 15 15 16 16 16 16 16 16 15 15 16
32 32 31 32 32 32 32 31 30 29 27 25 24 24 24 25 24 23 22 21 20 20 20 20 19 19 19 19 19 19 18 17 18 19 19 19 19 19 19 19 18 18
26 27 27 30 32 34 34 34 32 30 29 29 27 26 26 26 26 26 25 25 23 22 22 23 24 23 22 22 22 22 21 20 20 21 22 22 23 23 23 22 22 21
29 29 27 27 29 30 31 35 34 29 27 29 29 29 30 29 27 27 27 27 27 26 25 26 27 27 26 25 25 25 24 24 24 24 24 24 25 25 25 25 24 24
31 31 31 31 31 32 32 31 28 24 26 30 32 33 34 32 28 27 28 30 30 30 30 29 30 30 29 27 28 27 26 26 27 28 28 28 27 28 29 27 27 26
29 28 31 33 31 32 32 29 27 27 29 32 33 33 32 30 27 28 30 32 32 32 33 33 33 34 32 30 30 30 28 28 29 31 31 31 31 31 32 32 31 30
28 27 30 30 27 26 27 27 28 30 30 30 29 26 25 25 26 29 32 35 35 35 36 37 36 37 37 35 33 32 32 31 31 32 33 34 33 33 34 34 35 34
24 24 26 26 24 24 24 24 26 27 29 30 28 25 24 25 28 31 33 36 38 37 37 40 40 39 40 39 35 35 35 35 34 34 34 35 34 34 35 35 36 37
23 24 24 25 26 27 28 28 29 31 33 34 32 29 29 29 31 33 35 38 38 36 36 41 43 43 43 42 39 39 40 39 38 37 37 36 36 36 37 38 39 40
25 25 25 26 27 29 30 31 32 33 35 36 35 33 32 32 33 34 36 38 39 38 37 39 41 41 40 39 38 38 39 40 40 41 40 38 38 38 38 38 40 41
25 25 25 26 27 28 30 31 32 33 34 35 36 35 34 35 35 36 37 37 39 39 37 39 41 39 35 34 34 35 36 37 39 41 41 40 40 40 39 38 39 40
24 24 24 25 26 27 28 29 30 32 33 34 34 34 35 35 35 36 37 37 37 37 37 40 42 37 32 32 33 34 36 37 39 42 41 40 41 42 41 39 38 38
25 25 25 25 25 25 26 27 28 29 30 30 31 32 32 32 32 33 34 34 34 33 34 40 40 33 30 31 33 34 36 37 39 41 40 39 41 42 41 39 38 38
26 26 26 26 26 26 26 27 28 28 29 30 30 31 31 31 32 32 33 33 32 31 34 38 37 32 31 32 33 35 36 36 38 39 38 37 38 38 38 38 39 39
27 27 26 26 26 26 27 28 28 29 31 31 32 33 33 32 32 33 33 32 32 34 37 37 34 33 34 35 35 36 36 36 36 37 36 35 36 36 36 37 39 39
27 26 25 25 25 25 26 27 28 29 31 32 33 34 33 33 35 35 34 32 33 36 38 37 35 36 37 37 38 39 38 37 36 37 36 36 37 37 36 36 37 38
28 27 27 26 26 26 27 27 28 30 31 32 34 34 32 33 37 38 37 36 36 37 38 36 36 38 38 39 40 40 40 39 39 40 40 39 39 37 35 35 37 38
32 32 31 30 30 30 30 30 30 31 32 33 35 34 33 34 37 39 39 38 38 38 38 37 37 38 39 40 41 41 41 40 39 40 41 40 39 36 35 36 39 40
Wind_Direction
241 250 264 276 272 262 256 261 272 286 322 57 84 92 96 93 88 82 75 70 64 58 51 41 35 24 1 334 313 303 294 290 285 280 277 274 273 272 270 268 264 261
237 243 251 257 260 264 260 261 268 272 284 307 21 76 90 93 90 86 80 75 70 66 62 54 50 47 41 37 23 8 355 339 325 313 305 297 289 284 281 278 275 272
234 241 245 250 255 259 260 261 263 268 275 283 290 308 34 83 88 89 82 75 72 68 65 60 53 48 44 41 37 30 22 13 4 356 350 341 328 311 296 289 284 281
236 239 241 248 253 255 259 261 261 263 266 269 274 280 288 297 324 60 68 61 60 55 55 55 49 44 40 36 33 28 22 15 8 1 358 354 348 339 326 313 300 291
240 241 239 243 248 252 255 257 258 260 261 263 266 269 271 277 287 295 305 320 343 1 7 17 20 21 24 23 21 19 14 10 7 3 360 355 349 343 336 330 322 312
242 243 241 241 244 248 251 253 255 256 259 262 264 266 268 269 273 278 283 290 297 304 311 320 329 335 342 347 352 357 357 355 354 354 355 354 351 346 339 333 328 321
241 242 240 240 242 246 248 251 253 254 257 263 265 266 268 269 270 273 275 278 281 285 290 294 301 307 312 317 321 326 330 333 334 335 338 341 341 341 339 335 330 323
240 241 240 239 239 242 244 246 248 250 251 257 262 265 268 269 269 270 274 276 277 278 280 283 288 292 297 301 303 306 310 314 317 319 321 323 324 324 325 326 325 322
239 241 241 240 238 238 240 241 243 248 250 251 255 260 264 267 268 269 272 274 276 280 281 282 284 285 286 288 291 295 298 300 304 306 308 310 310 310 311 311 312 312
237 240 242 243 240 237 238 238 239 245 250 251 250 252 257 261 264 266 269 271 274 280 283 284 284 283 283 283 284 288 292 294 296 297 299 301 302 302 303 303 303 303
238 242 242 243 242 240 240 242 241 241 246 251 253 252 254 257 260 262 265 270 274 277 281 283 284 284 285 284 283 284 287 290 292 292 293 295 296 297 298 299 300 300
242 247 247 247 247 247 247 248 247 245 249 255 257 257 256 255 257 259 263 269 274 276 276 278 280 283 285 285 283 284 285 287 289 290 290 290 291 292 292 293 295 296
240 244 248 249 252 255 254 252 250 250 254 257 256 255 255 254 254 259 263 269 273 274 273 273 274 278 283 285 284 286 287 288 288 287 287 287 288 289 290 290 290 290
242 243 246 246 250 257 258 256 255 252 257 263 260 252 252 255 258 262 265 270 272 271 270 271 271 273 279 284 285 287 288 288 288 287 286 285 285 286 287 289 289 289
256 256 254 252 257 262 261 260 260 257 263 274 272 261 257 261 263 265 266 267 268 266 266 269 270 272 276 279 281 283 285 285 287 287 285 285 285 285 285 285 287 288
260 261 260 259 259 260 259 260 262 262 266 273 275 275 273 269 267 266 265 264 264 262 261 264 267 269 273 277 279 281 283 282 283 283 283 283 285 285 284 283 283 284
261 260 260 259 256 255 257 259 260 262 265 266 268 270 269 267 265 264 264 264 265 264 262 263 266 268 271 273 276 278 280 280 280 280 280 281 281 282 283 283 281 280
265 263 262 260 258 257 257 258 258 260 261 263 264 264 264 265 264 263 263 264 266 266 266 267 269 271 273 274 275 275 276 277 277 278 278 279 280 280 281 282 280 279
271 268 265 263 261 260 259 259 259 259 259 260 262 262 263 263 264 264 264 265 265 265 266 268 269 271 275 277 275 273 272 272 273 275 277 278 279 279 279 279 280 280
271 268 267 265 264 263 262 261 261 261 262 262 262 262 263 263 264 265 266 266 266 265 266 268 268 270 275 275 272 271 270 268 269 271 273 275 275 277 278 280 281 281
266 266 266 266 266 265 265 265 265 265 265 266 266 265 265 264 265 266 267 266 266 265 265 266 269 272 274 271 269 268 266 265 266 269 270 270 271 274 277 280 282 281
264 264 264 265 266 267 267 268 269 270 270 270 269 269 268 267 266 266 267 267 267 264 263 266 271 273 271 269 267 266 265 265 266 268 270 271 273 275 278 280 281 280
267 267 267 267 268 268 269 270 271 272 272 272 271 271 270 270 268 267 267 267 266 265 265 269 272 271 269 268 267 267 268 266 266 269 271 273 275 278 280 280 279 278
266 268 269 271 272 273 273 272 272 273 273 273 273 272 271 270 269 268 267 265 264 266 269 271 270 268 267 267 266 267 268 266 267 269 270 271 275 278 280 280 279 279
265 267 270 274 277 279 279 278 277 276 276 275 275 274 272 271 270 269 267 265 266 268 269 269 267 266 266 265 265 266 266 265 267 269 270 272 274 276 280 283 285 285
265 267 269 273 278 282 284 283 282 280 279 278 277 275 271 269 269 269 268 268 268 267 267 267 266 265 264 264 265 266 266 267 269 270 269 268 268 274 282 287 288 288
Height
3117 3118 3118 3118 3118 3118 3118 3118 3117 3117 3117 3117 3117 3117 3117 3117 3116 3116 3116 3116 3116 3116 3116 3116 3116 3116 3116 3116 3116 3117 3117 3117 3117 3117 3118 3118 3118 3119 3119 3119 3119 3119
3116 3117 3117 3117 3118 3118 3118 3117 3117 3117 3117 3117 3117 3117 3117 3117 3117 3117 3116 3116 3116 3116 3116 3116 3116 3116 3116 3116 3116 3116 3116 3117 3117 3117 3117 3118 3118 3118 3118 3118 3118 3118
3115 3115 3116 3116 3117 3117 3117 3117 3116 3116 3116 3116 3116 3117 3117 3117 3117 3117 3117 3117 3117 3117 3116 3116 3116 3116 3116 3116 3116 3116 3116 3116 3116 3116 3117 3117 3117 3117 3117 3117 3117 3117
3113 3114 3114 3115 3115 3115 3115 3115 3115 3115 3115 3115 3115 3116 3116 3116 3116 3116 3116 3117 3117 3117 3117 3117 3117 3116 3116 3116 3116 3116 3115 3115 3115 3115 3116 3116 3116 3116 3116 3117 3117 3117
3111 3112 3112 3113 3113 3113 3113 3113 3113 3114 3114 3114 3114 3114 3115 3115 3115 3116 3116 3116 3116 3116 3116 3116 3116 3116 3116 3116 3116 3116 3115 3115 3115 3115 3115 3115 3115 3115 3115 3115 3115 3116
3108 3109 3110 3110 3111 3111 3111 3111 3111 3112 3112 3112 3112 3112 3113 3114 3114 3114 3115 3115 3115 3115 3115 3115 3115 3116 3116 3116 3116 3116 3115 3115 3115 3115 3114 3114 3114 3114 3114 3114 3114 3114
3105 3106 3107 3108 3108 3108 3109 3109 3110 3110 3109 3109 3110 3110 3111 3112 3112 3112 3113 3113 3114 3114 3114 3114 3114 3114 3114 3114 3115 3115 3115 3115 3114 3114 3114 3114 3114 3113 3113 3113 3113 3113
3102 3103 3105 3105 3105 3105 3106 3106 3107 3107 3107 3107 3107 3108 3108 3109 3110 3111 3111 3111 3111 3112 3112 3113 3113 3113 3113 3113 3113 3113 3113 3113 3113 3113 3113 3113 3113 3113 3113 3113 3112 3112
3099 3100 3102 3102 3102 3102 3102 3103 3104 3105 3105 3104 3104 3105 3105 3106 3107 3108 3109 3109 3109 3109 3110 3111 3111 3111 3111 3111 3111 3111 3111 3111 3111 3111 3111 3111 3111 3111 3111 3111 3111 3111
3097 3098 3099 3099 3099 3099 3099 3100 3101 3102 3103 3102 3102 3102 3103 3103 3104 3105 3106 3106 3107 3107 3107 3108 3108 3109 3109 3109 3109 3109 3110 3110 3110 3109 3109 3109 3109 3109 3109 3109 3109 3109
3094 3095 3095 3096 3097 3098 3098 3098 3098 3098 3099 3100 3100 3100 3100 3100 3101 3101 3102 3103 3104 3105 3105 3105 3105 3106 3106 3107 3107 3107 3108 3108 3108 3108 3107 3107 3106 3106 3106 3106 3106 3106
3092 3092 3093 3093 3094 3095 3096 3097 3096 3095 3095 3096 3097 3097 3097 3098 3098 3098 3098 3099 3100 3102 3102 3102 3102 3102 3103 3103 3104 3104 3105 3105 3106 3106 3105 3105 3104 3104 3104 3104 3103 3103
3089 3090 3090 3090 3090 3092 3092 3092 3091 3091 3092 3093 3094 3094 3094 3095 3095 3095 3095 3097 3097 3098 3099 3099 3099 3099 3099 3100 3100 3101 3102 3102 3103 3103 3103 3102 3102 3102 3101 3101 3101 3100
3086 3087 3087 3087 3088 3089 3089 3090 3089 3088 3090 3091 3093 3093 3092 3091 3091 3091 3093 3094 3094 3095 3094 3095 3096 3096 3096 3097 3097 3098 3098 3099 3099 3099 3099 3099 3099 3099 3099 3098 3098 3098
3084 3085 3085 3085 3087 3087 3088 3089 3088 3087 3088 3089 3090 3090 3088 3087 3088 3089 3090 3091 3091 3091 3091 3090 3091 3092 3093 3094 3094 3094 3095 3095 3096 3096 3095 3095 3095 3095 3095 3095 3095 3094
3081 3081 3082 3083 3084 3085 3085 3086 3086 3085 3085 3085 3085 3084 3083 3084 3086 3087 3087 3087 3086 3087 3087 3086 3087 3088 3089 3091 3091 3091 3091 3091 3091 3091 3091 3091 3091 3091 3091 3091 3091 3090
3078 3078 3079 3080 3080 3081 3081 3081 3082 3082 3082 3082 3082 3081 3081 3082 3083 3083 3084 3083 3081 3082 3083 3082 3083 3085 3087 3088 3088 3088 3088 3087 3087 3087 3087 3087 3087 3087 3086 3086 3086 3086
3075 3076 3076 3076 3077 3077 3077 3077 3077 3078 3078 3078 3078 3078 3079 3079 3079 3079 3080 3080 3078 3079 3080 3079 3079 3081 3083 3084 3085 3085 3084 3083 3083 3083 3083 3083 3083 3083 3083 3082 3081 3081
3071 3072 3072 3073 3073 3073 3073 3073 3073 3073 3074 3074 3074 3075 3075 3075 3075 3075 3075 3075 3075 3075 3076 3075 3075 3077 3079 3080 3080 3080 3080 3079 3079 3078 3078 3079 3078 3078 3078 3078 3077 3077
3067 3068 3068 3069 3069 3069 3069 3070 3070 3070 3070 3070 3070 3070 3070 3071 3071 3070 3071 3071 3070 3071 3071 3069 3070 3074 3076 3075 3075 3075 3075 3075 3074 3073 3074 3075 3074 3073 3073 3073 3073 3073
3064 3064 3064 3065 3065 3066 3066 3066 3066 3066 3066 3066 3067 3066 3066 3067 3067 3067 3067 3066 3066 3067 3066 3064 3065 3070 3071 3070 3070 3070 3070 3071 3069 3069 3070 3070 3069 3069 3069 3068 3068 3068
3060 3060 3061 3061 3061 3062 3062 3062 3062 3062 3062 3063 3063 3063 3062 3063 3063 3063 3062 3062 3063 3063 3061 3060 3063 3066 3065 3065 3065 3065 3066 3066 3065 3064 3065 3065 3065 3065 3065 3064 3063 3063
3056 3056 3057 3057 3057 3058 3058 3058 3058 3058 3058 3058 3058 3058 3058 3058 3058 3059 3058 3058 3058 3057 3056 3058 3060 3060 3060 3060 3060 3061 3062 3062 3061 3060 3061 3061 3060 3060 3060 3059 3058 3058
3052 3053 3053 3053 3053 3054 3054 3054 3054 3054 3054 3054 3053 3053 3054 3053 3053 3054 3054 3053 3053 3052 3052 3054 3055 3054 3054 3055 3055 3056 3057 3057 3057 3056 3056 3056 3056 3056 3055 3055 3054 3053
3048 3049 3049 3049 3049 3049 3049 3050 3050 3050 3050 3049 3049 3049 3049 3048 3048 3048 3048 3048 3049 3048 3049 3050 3050 3049 3049 3050 3050 3052 3052 3052 3053 3053 3053 3052 3052 3051 3051 3050 3050 3049
3044 3044 3045 3045 3045 3045 3045 3045 3045 3045 3045 3045 3045 3045 3045 3044 3043 3043 3043 3044 3044 3044 3044 3045 3044 3044 3045 3045 3046 3047 3047 3048 3049 3049 3048 3048 3047 3047 3047 3046 3046 3044